• Join FlightAware (Why Join?)
  • Login
  • US Flag 
Trick or treat! (Boo!!) 
07:11PM EDT


 

Airport Tracker/Info


-or-


 

Live Flight TrackerFlight Track Log ✈ SWA2122 ✈ 06-Apr-2013 ✈ KBWI - KBNA

Flight Track Log - Related Links

Times and Time Zones

All times are in EDT time to prevent confusion due to time zone crossing. See the SWA2122 flight status page for this flight to view local times or setup timezone preferences in your user account.

Time Position Orientation Groundspeed Altitude Reporting Facility
EDT Latitude Longitude Course Direction KTS MPH feet Rate Location/Type
08:51AM 39.1833 -76.7667 211° Southwest 214 246 3,000  Level Potomac TRACON
08:52AM 39.2000 -76.8500 284° West 251 289 5,500 3,240 Climbing Potomac TRACON
08:53AM 39.2000 -76.9333 270° West 263 303 9,200 2,760 Climbing Potomac TRACON
08:54AM 39.2000 -77.0333 270° West 281 323 11,100 2,100 Climbing Potomac TRACON
08:55AM 39.2000 -77.1333 270° West 330 380 13,300 2,280 Climbing Potomac TRACON
08:57AM 39.0521 -77.2687 211° Southwest  Level FlightAware Approximate
08:57AM 39.0903 -77.3514 237° Southwest 352 405 18,000  Level Washington Center
08:58AM 39.0572 -77.4733 251° West 357 411 20,000 2,100 Climbing Washington Center
08:59AM 39.0236 -77.6036 252° West 380 437 22,200 1,800 Climbing Washington Center
09:00AM 38.9906 -77.7200 250° West 390 449 23,700 1,620 Climbing Washington Center
09:01AM 38.9503 -77.8658 250° West 390 449 25,500 1,560 Climbing Washington Center
09:02AM 38.9144 -77.9900 250° West 405 466 26,900 1,680 Climbing Washington Center
09:03AM 38.8764 -78.1247 250° West 405 466 28,900 1,680 Climbing Washington Center
09:04AM 38.8483 -78.2625 255° West 405 466 30,300 1,260 Climbing Washington Center
09:05AM 38.8494 -78.3983 271° West 384 442 31,500 1,500 Climbing Washington Center
09:06AM 38.8481 -78.5369 269° West 391 450 33,300 1,500 Climbing Washington Center
09:07AM 38.8469 -78.6675 269° West 385 443 34,600 1,080 Climbing Washington Center
09:08AM 38.8436 -78.8008 268° West 380 437 35,500 660 Climbing Washington Center
09:09AM 38.8419 -78.9339 269° West 380 437 36,000 240 Climbing Washington Center
09:10AM 38.8381 -79.0669 268° West 380 437 36,000  Level Washington Center
09:11AM 38.8342 -79.2000 268° West 380 437 36,000  Level Washington Center
09:12AM 38.8111 -79.3403 258° West 391 450 36,000  Level Washington Center
09:13AM 38.7883 -79.4694 257° West 391 450 36,000  Level Washington Center
09:14AM 38.7667 -79.6203 260° West 391 450 36,000  Level Washington Center
09:15AM 38.7433 -79.7547 257° West 391 450 36,000  Level Washington Center
09:17AM 38.6889 -80.0261 256° West 387 445 36,000  Level Indianapolis Center
09:18AM 38.6644 -80.1603 257° West 386 444 36,000  Level Indianapolis Center
09:19AM 38.6389 -80.2931 256° West 384 442 36,000  Level Indianapolis Center
09:20AM 38.6133 -80.4272 256° West 386 444 36,000  Level Indianapolis Center
09:21AM 38.5881 -80.5608 256° West 386 444 36,000  Level Indianapolis Center
09:23AM 38.5622 -80.6950 256° West 387 445 36,000  Level Indianapolis Center
09:24AM 38.5364 -80.8297 256° West 390 449 36,000  Level Indianapolis Center
09:25AM 38.5108 -80.9628 256° West 386 444 36,000  Level Indianapolis Center
09:26AM 38.4839 -81.0975 256° West 388 447 36,000  Level Indianapolis Center
09:27AM 38.4575 -81.2328 256° West 389 448 36,000  Level Indianapolis Center
09:28AM 38.4306 -81.3697 256° West 392 451 36,000  Level Indianapolis Center
09:29AM 38.3981 -81.5303 256° West 388 447 36,000  Level Indianapolis Center
09:30AM 38.3722 -81.6644 256° West 386 444 36,000  Level Indianapolis Center
09:31AM 38.3439 -81.7967 255° West 384 442 36,000  Level Indianapolis Center
09:32AM 38.3067 -81.9253 250° West 385 443 36,000  Level Indianapolis Center
09:33AM 38.2694 -82.0544 250° West 387 445 36,000  Level Indianapolis Center
09:34AM 38.2333 -82.1839 250° West 387 445 36,000  Level Indianapolis Center
09:35AM 38.1978 -82.3122 251° West 385 443 36,000  Level Indianapolis Center
09:36AM 38.1611 -82.4414 250° West 387 445 36,000  Level Indianapolis Center
09:37AM 38.1181 -82.5908 250° West 383 441 36,000  Level Indianapolis Center
09:38AM 38.0814 -82.7164 250° West 381 438 36,000  Level Indianapolis Center
09:39AM 38.0436 -82.8458 250° West 388 447 36,000  Level Indianapolis Center
09:40AM 38.0064 -82.9733 250° West 386 444 36,000  Level Indianapolis Center
09:41AM 37.9697 -83.1014 250° West 387 445 36,000  Level Indianapolis Center
09:42AM 37.9492 -83.2347 259° West 385 443 36,000 -300 Level Indianapolis Center
09:43AM 37.9292 -83.3889 261° West 382 440 35,500 -780 Descending Indianapolis Center
09:44AM 37.9128 -83.5233 261° West 385 443 34,500 -960 Descending Indianapolis Center
09:45AM 37.8972 -83.6567 262° West 384 442 33,600 -960 Descending Indianapolis Center
09:46AM 37.8653 -83.7847 252° West 388 447 32,600 -840 Descending Indianapolis Center
09:47AM 37.7922 -83.8906 229° Southwest 394 453 32,000 -300 Descending Indianapolis Center
09:48AM 37.7203 -83.9983 230° Southwest 400 460 32,000  Level Indianapolis Center
09:49AM 37.6353 -84.1250 230° Southwest 403 464 32,000  Level Indianapolis Center
09:50AM 37.5625 -84.2325 230° Southwest 402 463 32,000  Level Indianapolis Center
09:51AM 37.4886 -84.3408 229° Southwest 405 466 32,000  Level Indianapolis Center
09:52AM 37.4142 -84.4483 229° Southwest 407 468 32,000  Level Indianapolis Center
09:53AM 37.3392 -84.5586 229° Southwest 414 476 32,000 -360 Level Indianapolis Center
09:54AM 37.2653 -84.6650 229° Southwest 407 468 31,300 -960 Descending Indianapolis Center
09:55AM 37.1775 -84.7908 229° Southwest 410 472 30,100 -1,020 Descending Indianapolis Center
09:56AM 37.1047 -84.8989 230° Southwest 408 470 29,200 -960 Descending Indianapolis Center
09:57AM 37.0314 -85.0036 229° Southwest 405 466 28,200 -960 Descending Indianapolis Center
09:59AM 36.9569 -85.1089 229° Southwest 405 466 27,300 -960 Descending Indianapolis Center
10:00AM 36.8839 -85.2142 229° Southwest 404 465 26,300 -1,260 Descending Indianapolis Center
10:01AM 36.8103 -85.3178 228° Southwest 401 461 24,800 -1,800 Descending Indianapolis Center
10:01AM 36.7378 -85.4222 229° Southwest 404 465 22,900 -1,440 Descending Memphis Center
10:02AM 36.6919 -85.5311 242° Southwest 369 425 22,200 -480 Descending Memphis Center
10:03AM 36.6397 -85.6325 237° Southwest 358 412 22,000 -420 Descending Memphis Center
10:04AM 36.5875 -85.7414 239° Southwest 358 412 21,400 -1,620 Descending Memphis Center
10:05AM 36.5414 -85.8475 242° Southwest 358 412 18,800 -2,340 Descending Memphis Center
10:06AM 36.4931 -85.9483 239° Southwest 353 406 16,800 -1,980 Descending Memphis Center
10:07AM 36.4503 -86.0383 239° Southwest 347 399 14,900 -2,040 Descending Memphis Center
10:08AM 36.4017 -86.1389 239° Southwest 347 399 12,800 -2,100 Descending Memphis Center
10:09AM 36.3547 -86.2342 239° Southwest 342 394 10,700 -1,440 Descending Memphis Center
10:10AM 36.3117 -86.3211 238° Southwest 318 366 10,000 -1,140 Descending Memphis Center
10:11AM 36.2728 -86.4031 240° Southwest 291 335 8,500 -1,500 Descending Memphis Center
10:12AM 36.2297 -86.4925 239° Southwest 286 329 7,000 -1,260 Descending Memphis Center
10:13AM 36.1728 -86.5389 213° Southwest 251 289 6,000 -900 Descending Memphis Center
10:14AM 36.1108 -86.5622 197° South 245 282 5,200 -960 Descending Memphis Center
10:15AM 36.0531 -86.5831 196° South 225 259 4,200 -1,200 Descending Memphis Center
10:16AM 36.0042 -86.6161 209° Southwest 214 246 2,900 -900 Descending Memphis Center
10:17AM 36.0267 -86.6742 296° West 143 165 2,500 -600 Descending Memphis Center
10:18AM 36.0686 -86.6850 348° North 120 138 1,700 -900 Descending Memphis Center
10:19AM 36.1100 -86.6678 19° North 120 138 700 -1,020 Descending Memphis Center
10:22AM 36.1167 -86.6667 287° West  Level FlightAware Approximate
10:29AM 36.1245 -86.6782 287° West  Level Estimated
10:30AM 36.1245 -86.6782 287° West  Level Estimated
10:31AM 36.1245 -86.6782 287° West  Level Estimated
10:32AM 36.1245 -86.6782 287° West  Level Estimated
10:33AM 36.1245 -86.6782 287° West  Level Estimated
10:34AM 36.1245 -86.6782 287° West  Level Estimated